Probability
0 0 0 0 0 0 0 0 0 0 0 0 0 0 0 0 0 0 0 0 0 0 0 0 0 1 2 3 3 1 0 0 0 0 0 0 0 0 0 0 0 0 0
0 0 0 0 0 0 0 0 0 0 0 0 0 0 0 0 0 0 0 0 0 0 0 0 0 0 1 3 3 2 1 0 0 0 0 0 0 0 0 0 0 0 0
0 0 0 0 0 0 0 0 0 0 0 1 1 0 0 0 0 0 0 0 0 0 0 0 0 0 1 2 3 3 2 1 0 0 0 0 0 0 0 0 0 0 0
0 0 0 0 0 0 0 0 0 0 0 1 1 0 0 0 0 0 0 0 0 0 0 0 0 0 0 1 2 2 2 1 0 0 0 0 0 0 0 0 0 0 0
0 0 0 0 0 0 0 0 0 0 0 1 1 0 0 0 0 0 0 0 0 0 0 0 0 0 0 0 1 1 1 0 0 0 0 0 0 0 0 0 0 0 0
0 0 0 0 0 0 0 0 0 0 0 0 0 0 0 0 0 0 0 0 0 0 0 0 0 0 0 0 0 0 0 0 0 0 0 0 0 0 0 0 0 0 0
0 0 0 0 0 0 0 0 0 0 0 0 0 0 0 0 0 0 0 0 0 0 0 0 0 0 0 0 0 0 0 0 0 0 0 0 0 0 0 0 0 0 0
0 0 0 0 0 0 0 0 0 0 0 0 0 0 0 0 0 0 0 0 0 0 0 0 0 0 0 0 0 0 0 0 0 0 0 0 0 0 0 0 0 0 0
0 0 0 0 0 0 0 0 0 0 0 0 0 0 0 0 0 0 0 0 0 0 0 0 0 0 0 0 0 0 0 0 0 0 0 0 0 0 0 0 0 0 0
0 0 0 0 0 0 0 0 0 0 0 0 0 0 0 0 0 0 0 0 0 0 0 0 0 0 0 0 0 0 0 0 0 0 0 0 0 0 0 0 0 0 0
0 0 0 0 0 0 0 0 0 0 0 0 0 0 0 0 0 0 0 0 0 0 0 0 0 0 0 0 0 0 0 0 0 0 0 0 0 0 0 0 0 0 0
0 0 0 0 0 0 0 0 0 0 0 0 0 0 0 0 0 0 0 0 0 0 0 0 0 0 0 0 0 0 0 0 0 0 0 0 0 0 0 0 0 0 0
0 0 0 0 0 0 0 0 0 0 0 0 0 0 0 0 0 0 0 0 0 0 0 0 0 0 0 0 0 0 0 0 0 0 0 0 0 0 0 0 0 0 0
0 0 0 0 0 0 0 0 0 0 0 0 0 0 0 0 0 0 0 0 0 0 0 0 0 0 0 0 0 0 0 0 0 0 0 0 0 0 0 0 0 0 0
0 0 0 0 0 0 0 0 0 0 0 0 0 0 0 0 0 0 0 0 0 0 0 0 0 0 0 0 0 0 0 0 0 0 0 0 0 0 0 0 0 0 0
0 0 0 0 0 0 0 0 0 0 0 0 0 0 0 0 0 0 0 0 0 0 0 0 0 0 0 0 0 0 0 0 0 0 0 0 0 0 0 0 0 0 0
0 0 0 0 0 0 0 0 0 0 0 0 0 0 0 0 0 0 0 0 0 0 0 0 0 0 0 0 0 0 0 0 0 0 0 0 0 0 0 0 0 0 0
0 0 0 0 0 0 0 0 0 0 0 0 0 0 0 0 0 0 0 0 0 0 0 0 0 0 0 0 0 0 0 0 0 0 0 0 0 0 0 0 0 0 0
0 0 0 0 0 0 0 0 0 0 0 0 0 0 0 0 0 0 0 0 0 0 0 0 0 0 0 0 0 0 0 0 0 0 0 0 0 0 0 0 0 0 0
0 0 0 0 0 0 0 0 0 0 0 0 0 0 0 0 0 0 0 0 0 0 0 0 0 0 0 0 0 0 0 0 0 0 0 0 0 0 0 0 0 0 0
0 0 0 0 0 0 0 0 0 0 0 0 0 0 0 0 0 0 0 0 0 0 0 0 0 0 0 0 0 0 0 0 0 0 0 0 0 0 0 0 0 0 0
0 0 0 0 0 0 0 0 0 0 0 0 0 0 0 0 0 0 0 0 0 0 0 0 0 0 0 0 0 0 0 0 0 0 0 0 0 0 0 0 0 0 0
0 0 0 0 0 0 0 0 0 0 0 0 0 0 0 0 0 0 0 0 0 0 0 0 0 0 0 0 0 0 0 0 0 0 0 0 0 0 0 0 0 0 0
0 0 0 0 0 0 0 0 0 0 0 0 0 0 0 0 0 0 0 0 0 0 0 0 0 0 0 0 0 0 0 0 0 0 0 0 0 0 0 0 0 0 0
0 0 0 0 0 0 0 0 0 0 0 0 0 0 0 0 0 0 0 0 0 0 0 0 0 0 0 0 0 0 0 0 0 0 0 0 0 0 0 0 0 0 0
0 0 0 0 0 0 0 0 0 0 0 0 0 0 0 0 0 0 0 0 0 0 0 0 0 0 0 0 0 0 0 0 0 0 0 0 0 0 0 0 0 0 0
Wind_Speed
3 3 3 3 3 2 2 2 2 2 2 3 4 4 5 5 5 6 7 7 8 9 8 9 11 10 9 8 8 9 9 10 15 11 6 6 8 9 8 8 9 9 9
2 3 3 2 2 2 1 1 0 1 1 2 3 3 4 5 5 6 7 7 8 9 9 9 11 9 11 9 8 10 10 10 12 15 9 6 8 7 7 7 7 7 8
2 3 2 2 2 2 1 0 0 1 1 2 2 3 4 5 5 6 6 7 8 9 9 9 10 10 11 9 9 9 8 8 9 11 11 6 6 4 5 5 6 6 6
2 3 2 2 1 1 1 1 1 1 2 2 3 3 4 5 5 5 6 7 8 8 8 9 10 10 11 10 9 10 9 9 9 10 10 7 6 4 3 5 6 6 7
3 3 2 1 1 1 1 1 1 1 2 3 3 4 4 4 4 5 6 7 8 9 9 9 9 9 11 11 9 9 9 9 9 9 10 8 7 4 5 5 7 5 6
3 2 2 2 1 1 1 1 2 2 3 3 3 4 5 4 6 8 7 7 8 9 9 9 9 9 9 12 14 14 13 12 11 10 10 10 10 8 6 6 6 5 7
3 2 1 1 1 1 1 2 2 2 3 3 4 4 6 7 9 10 9 8 8 8 9 9 8 7 9 9 11 13 14 16 17 14 14 14 12 9 7 8 8 8 9
3 2 1 1 0 1 1 1 2 3 3 4 5 5 6 8 10 11 11 8 8 9 9 9 10 10 8 9 10 11 11 11 13 13 14 14 12 9 9 10 9 7 5
3 2 2 1 1 0 1 2 2 3 4 4 5 6 7 9 10 12 11 6 7 9 8 9 9 10 12 12 11 12 12 11 11 14 16 16 16 15 10 6 5 5 6
3 2 2 1 1 1 2 2 3 3 4 5 6 6 7 8 11 12 11 5 7 8 7 7 8 10 14 13 10 11 13 11 8 8 9 11 12 11 12 10 8 7 5
1 1 0 0 1 1 2 2 3 3 4 5 6 6 6 7 10 12 11 5 6 8 7 7 7 12 15 15 14 11 14 13 9 9 9 8 7 6 6 6 7 7 7
1 1 0 1 1 1 1 2 2 3 4 5 5 6 5 5 6 10 12 11 10 8 8 8 9 15 17 17 14 13 16 13 7 7 7 8 7 6 5 4 5 6 6
1 0 1 1 1 1 1 2 2 2 3 4 4 5 6 5 6 10 11 13 13 9 8 13 16 18 18 13 13 14 11 7 7 7 8 8 6 5 4 3 3 3 3
1 0 1 1 1 2 2 2 2 2 3 4 4 5 6 6 6 5 5 6 9 9 9 10 14 15 13 11 9 8 5 6 7 7 7 7 5 4 4 4 4 3 3
1 1 1 1 1 2 2 2 3 3 3 4 4 5 6 7 9 13 11 8 7 8 10 8 7 7 6 6 6 5 5 5 5 6 6 6 5 5 5 4 4 4 5
1 0 1 1 1 2 2 3 5 6 8 9 9 8 7 10 16 16 16 16 16 15 9 7 7 7 7 7 7 7 5 5 5 6 6 6 6 5 5 4 4 5 5
1 1 1 1 1 2 2 3 5 6 7 9 10 11 11 14 15 16 16 15 14 12 6 5 6 6 7 7 7 7 7 6 6 6 6 6 5 5 5 5 4 4 4
1 2 2 2 2 2 2 3 3 5 6 6 7 11 13 14 14 14 14 11 7 5 4 5 6 6 6 7 7 7 7 7 6 6 6 5 5 4 4 4 4 4 4
1 2 2 1 2 2 2 2 3 4 5 6 6 7 10 12 12 12 10 5 5 5 5 5 6 7 7 7 7 7 7 7 7 6 5 5 5 4 4 4 4 4 3
2 2 2 1 2 2 2 2 3 3 4 5 5 6 6 6 6 7 5 4 5 6 6 6 6 6 7 7 7 7 7 7 7 6 5 5 4 4 4 4 3 3 2
2 2 2 2 2 2 2 2 3 3 4 5 5 7 10 6 6 6 6 6 6 6 7 7 7 7 6 6 6 7 8 7 6 6 5 5 4 4 4 3 2 2 2
2 1 1 2 2 2 2 3 3 4 5 6 6 6 10 5 5 5 6 6 6 6 6 6 7 6 6 6 7 7 7 7 6 6 5 5 4 3 3 2 1 1 2
1 1 1 2 2 3 3 3 3 4 4 5 6 5 5 5 5 6 6 6 6 6 6 6 7 7 7 6 6 7 7 7 6 6 6 5 4 3 2 2 2 2 2
1 2 2 2 2 2 3 3 3 4 4 5 5 5 5 5 6 7 7 7 7 6 6 6 7 9 11 9 7 6 6 6 6 5 5 4 4 3 2 2 2 2 2
1 2 2 2 3 3 3 4 4 4 4 5 5 5 5 6 6 7 6 6 7 7 8 7 6 7 9 10 10 8 9 9 8 6 4 3 3 2 2 2 2 2 2
2 2 2 2 3 3 3 4 4 5 5 5 5 5 6 6 6 6 6 6 6 7 7 7 8 9 10 9 9 10 10 9 8 6 3 2 2 2 1 1 2 2 3
Wind_Direction
162 164 161 167 169 171 182 203 222 240 247 248 250 252 254 256 255 253 254 258 256 258 256 253 253 250 250 248 245 244 245 247 264 270 249 233 223 230 235 232 234 233 234
158 144 149 152 142 144 161 193 231 263 276 272 276 270 264 262 259 257 260 261 261 264 264 263 262 258 254 252 249 248 249 246 256 269 267 247 237 233 230 231 232 230 231
139 131 130 136 139 149 157 147 16 322 312 312 304 293 287 282 275 267 264 264 262 262 264 265 267 265 262 258 256 255 254 253 251 262 269 256 247 236 237 242 238 235 233
137 136 137 140 137 137 119 70 8 331 318 315 306 294 289 288 287 284 280 277 273 268 265 264 264 263 265 266 263 259 258 257 254 256 262 262 254 243 225 237 249 236 237
142 146 150 133 115 99 69 31 359 338 316 308 306 304 302 298 296 299 294 288 283 280 275 269 267 266 265 264 265 266 263 261 259 258 260 262 253 238 233 224 239 246 246
156 157 137 123 102 74 42 16 355 341 332 328 318 309 304 297 303 303 296 290 285 282 282 280 276 268 267 265 262 261 258 260 263 261 261 258 257 245 240 230 236 241 254
154 142 133 120 99 47 17 0 340 331 327 322 312 310 303 301 308 308 301 289 285 283 283 285 285 281 274 274 273 268 262 257 254 258 263 261 261 249 237 238 233 234 246
155 153 150 138 118 25 3 336 326 322 317 311 308 307 303 304 311 311 310 293 284 282 281 281 282 284 282 282 284 279 271 263 257 253 258 264 263 257 237 237 236 243 255
171 173 174 172 187 280 300 304 311 314 310 306 304 304 303 305 311 313 314 299 287 285 281 278 278 281 286 286 283 282 281 276 267 255 256 261 263 259 247 239 231 226 250
192 189 182 184 203 255 280 298 304 302 300 304 301 299 297 299 309 313 313 299 294 293 289 279 272 274 283 286 280 279 281 283 285 284 270 266 262 255 241 232 225 226 238
155 132 144 212 242 256 284 294 296 298 301 301 300 301 297 295 304 310 312 304 297 297 296 295 289 288 289 289 284 276 276 283 284 280 279 275 267 256 246 235 225 223 231
82 74 19 327 309 297 291 300 300 297 297 300 304 306 299 296 302 310 313 308 305 296 295 297 297 301 299 295 289 280 282 284 278 275 275 274 270 263 256 240 232 231 236
76 55 337 334 327 323 306 301 303 302 298 306 309 307 310 312 311 313 312 312 311 302 295 296 299 300 300 295 288 286 284 277 271 267 267 269 269 263 254 250 245 235 247
118 328 346 346 337 337 318 308 305 302 300 306 309 307 310 311 312 317 314 312 309 304 299 299 300 299 296 294 296 295 284 276 273 272 273 273 268 257 251 244 244 235 245
93 6 346 341 328 322 317 303 297 286 284 293 294 298 306 307 313 318 318 313 311 306 308 303 303 306 306 305 302 297 293 289 282 281 279 280 278 272 266 254 244 240 238
98 351 318 310 315 319 315 313 305 301 306 302 301 300 297 300 311 315 316 316 318 317 311 301 304 305 305 307 308 307 304 297 290 284 278 275 272 269 271 270 255 241 235
179 247 276 295 301 305 308 309 312 316 312 310 312 313 311 313 316 318 319 320 322 324 312 303 303 304 305 307 308 306 304 302 297 289 284 281 278 274 271 267 256 248 243
210 227 236 252 271 282 287 293 297 304 312 312 315 318 320 320 321 324 325 325 320 325 308 305 305 304 305 304 303 302 302 303 298 293 289 287 281 277 276 272 262 246 235
227 234 232 245 262 266 276 284 287 291 294 301 309 314 320 320 322 327 332 321 309 309 306 302 301 302 302 301 299 298 297 296 294 293 291 289 285 282 279 275 270 254 240
229 243 249 246 257 266 271 277 285 290 294 298 303 307 315 321 322 323 324 311 305 301 300 298 297 296 298 298 299 298 296 294 294 291 290 289 288 284 279 274 264 253 244
227 238 243 247 248 254 262 268 277 285 290 292 292 299 315 312 306 306 308 307 303 300 300 298 295 294 293 295 297 297 295 293 291 290 289 288 288 286 283 271 258 246 226
225 234 242 249 261 267 271 272 276 280 285 288 294 302 314 309 299 297 296 294 293 293 294 294 293 293 293 293 292 291 291 292 292 290 288 288 286 283 280 273 259 235 200
229 251 261 263 265 272 277 274 274 277 282 285 291 298 301 297 294 293 294 296 297 297 297 294 294 295 295 292 289 286 285 285 285 285 289 290 286 279 272 259 229 211 198
246 249 256 264 264 262 266 272 273 275 280 285 288 289 291 292 292 293 294 295 296 296 296 295 291 293 299 302 300 295 291 292 291 286 282 278 283 282 267 248 237 209 186
248 250 253 255 258 263 269 273 274 276 279 281 284 287 289 291 293 294 295 296 297 297 299 298 296 299 303 305 306 304 303 304 301 295 291 283 273 266 256 245 230 204 176
258 261 265 266 265 264 266 272 275 278 280 281 282 284 287 290 291 293 295 297 300 301 301 301 302 304 305 304 305 307 307 308 309 306 294 280 266 246 228 224 207 186 169